Time,TemperatureF,DewpointF,PressureIn,WindDirection,WindDirectionDegrees,WindSpeedMPH,WindSpeedGustMPH,Humidity,HourlyPrecipIn,Conditions,Clouds,dailyrainin,SoftwareType,DateUTC
2013-07-30 00:02:00,53.0,51.0,-100.00,NNE,12,0.0,-999.0,93,0.00,,,-99.99,,2013-07-30 07:02:00,
2013-07-30 00:13:00,53.0,51.0,-100.00,NNE,12,0.0,-999.0,93,0.00,,,-99.99,,2013-07-30 07:13:00,
2013-07-30 00:22:00,53.0,51.0,-100.00,NNE,12,0.0,-999.0,93,0.00,,,-99.99,,2013-07-30 07:22:00,
2013-07-30 00:30:00,54.0,52.0,-100.00,West,280,0.0,-999.0,93,0.00,,,-99.99,,2013-07-30 07:30:00,
2013-07-30 01:03:00,54.0,52.0,-100.00,West,280,0.0,-999.0,93,0.00,,,-99.99,,2013-07-30 08:03:00,
2013-07-30 01:12:00,54.0,52.0,-100.00,West,280,0.0,-999.0,93,0.00,,,-99.99,,2013-07-30 08:12:00,
2013-07-30 01:22:00,54.0,52.0,-100.00,West,280,0.0,-999.0,93,0.00,,,-99.99,,2013-07-30 08:22:00,
2013-07-30 01:30:00,55.0,52.0,-100.00,NW,322,0.0,-999.0,92,0.00,,,-99.99,,2013-07-30 08:30:00,
2013-07-30 02:02:00,55.0,52.0,-100.00,NW,322,0.0,-999.0,92,0.00,,,-99.99,,2013-07-30 09:02:00,
2013-07-30 02:12:00,55.0,52.0,-100.00,NW,322,0.0,-999.0,92,0.00,,,-99.99,,2013-07-30 09:12:00,
2013-07-30 02:22:00,55.0,52.0,-100.00,NW,322,0.0,-999.0,92,0.00,,,-99.99,,2013-07-30 09:22:00,
2013-07-30 02:30:00,55.0,52.0,-100.00,North,7,3.0,-999.0,88,0.00,,,-99.99,,2013-07-30 09:30:00,
2013-07-30 02:53:00,55.0,52.0,-100.00,North,7,3.0,-999.0,88,0.00,,,-99.99,,2013-07-30 09:53:00,
2013-07-30 03:02:00,55.0,52.0,-100.00,North,7,3.0,-999.0,88,0.00,,,-99.99,,2013-07-30 10:02:00,
2013-07-30 03:12:00,55.0,52.0,-100.00,North,7,3.0,-999.0,88,0.00,,,-99.99,,2013-07-30 10:12:00,
2013-07-30 03:22:00,55.0,52.0,-100.00,North,7,3.0,-999.0,88,0.00,,,-99.99,,2013-07-30 10:22:00,
2013-07-30 03:30:00,56.0,52.0,-100.00,North,350,1.0,-999.0,87,0.00,,,-99.99,,2013-07-30 10:30:00,
2013-07-30 04:02:00,56.0,52.0,-100.00,North,350,1.0,-999.0,87,0.00,,,-99.99,,2013-07-30 11:02:00,
2013-07-30 04:11:00,56.0,52.0,-100.00,North,350,1.0,-999.0,87,0.00,,,-99.99,,2013-07-30 11:11:00,
2013-07-30 04:22:00,56.0,52.0,-100.00,North,350,1.0,-999.0,87,0.00,,,-99.99,,2013-07-30 11:22:00,
2013-07-30 04:30:00,55.0,51.0,-100.00,NNE,17,2.0,-999.0,87,0.00,,,-99.99,,2013-07-30 11:30:00,
2013-07-30 04:53:00,55.0,51.0,-100.00,NNE,17,2.0,-999.0,87,0.00,,,-99.99,,2013-07-30 11:53:00,
2013-07-30 05:12:00,55.0,51.0,-100.00,NNE,17,2.0,-999.0,87,0.00,,,-99.99,,2013-07-30 12:12:00,
2013-07-30 05:22:00,55.0,51.0,-100.00,NNE,17,2.0,-999.0,87,0.00,,,-99.99,,2013-07-30 12:22:00,
2013-07-30 05:30:00,54.0,52.0,-100.00,NNE,25,0.0,-999.0,92,0.00,,,-99.99,,2013-07-30 12:30:00,
2013-07-30 06:12:00,54.0,52.0,-100.00,NNE,25,0.0,-999.0,92,0.00,,,-99.99,,2013-07-30 13:12:00,
2013-07-30 06:22:00,54.0,52.0,-100.00,NNE,25,0.0,-999.0,92,0.00,,,-99.99,,2013-07-30 13:22:00,
2013-07-30 06:30:00,54.0,52.0,-100.00,North,11,2.0,-999.0,92,0.00,,,-99.99,,2013-07-30 13:30:00,
2013-07-30 07:02:00,54.0,52.0,-100.00,North,11,2.0,-999.0,92,0.00,,,-99.99,,2013-07-30 14:02:00,
2013-07-30 07:12:00,54.0,52.0,-100.00,North,11,2.0,-999.0,92,0.00,,,-99.99,,2013-07-30 14:12:00,
2013-07-30 07:22:00,54.0,52.0,-100.00,North,11,2.0,-999.0,92,0.00,,,-99.99,,2013-07-30 14:22:00,
2013-07-30 07:30:00,54.0,52.0,-100.00,North,7,3.0,-999.0,93,0.00,,,-99.99,,2013-07-30 14:30:00,
2013-07-30 08:02:00,54.0,52.0,-100.00,North,7,3.0,-999.0,93,0.00,,,-99.99,,2013-07-30 15:02:00,
2013-07-30 08:12:00,54.0,52.0,-100.00,North,7,3.0,-999.0,93,0.00,,,-99.99,,2013-07-30 15:12:00,
2013-07-30 08:22:00,54.0,52.0,-100.00,North,7,3.0,-999.0,93,0.00,,,-99.99,,2013-07-30 15:22:00,
2013-07-30 08:30:00,53.0,52.0,-100.00,NNE,19,2.0,-999.0,94,0.00,,,-99.99,,2013-07-30 15:30:00,
2013-07-30 09:02:00,53.0,52.0,-100.00,NNE,19,2.0,-999.0,94,0.00,,,-99.99,,2013-07-30 16:02:00,
2013-07-30 09:22:00,53.0,52.0,-100.00,NNE,19,2.0,-999.0,94,0.00,,,-99.99,,2013-07-30 16:22:00,
2013-07-30 09:30:00,55.0,53.0,-100.00,North,10,2.0,-999.0,94,0.00,,,-99.99,,2013-07-30 16:30:00,
2013-07-30 10:02:00,55.0,53.0,-100.00,North,10,2.0,-999.0,94,0.00,,,-99.99,,2013-07-30 17:02:00,
2013-07-30 10:12:00,55.0,53.0,-100.00,North,10,2.0,-999.0,94,0.00,,,-99.99,,2013-07-30 17:12:00,
2013-07-30 10:22:00,55.0,53.0,-100.00,North,10,2.0,-999.0,94,0.00,,,-99.99,,2013-07-30 17:22:00,
2013-07-30 10:30:00,56.0,54.0,-100.00,North,353,2.0,-999.0,92,0.00,,,-99.99,,2013-07-30 17:30:00,
2013-07-30 11:02:00,56.0,54.0,-100.00,North,353,2.0,-999.0,92,0.00,,,-99.99,,2013-07-30 18:02:00,
2013-07-30 11:12:00,56.0,54.0,-100.00,North,353,2.0,-999.0,92,0.00,,,-99.99,,2013-07-30 18:12:00,
2013-07-30 11:22:00,56.0,54.0,-100.00,North,353,2.0,-999.0,92,0.00,,,-99.99,,2013-07-30 18:22:00,
2013-07-30 11:30:00,56.0,53.0,-100.00,North,11,4.0,-999.0,89,0.00,,,-99.99,,2013-07-30 18:30:00,
2013-07-30 12:02:00,56.0,53.0,-100.00,North,11,4.0,-999.0,89,0.00,,,-99.99,,2013-07-30 19:02:00,
2013-07-30 12:12:00,56.0,53.0,-100.00,North,11,4.0,-999.0,89,0.00,,,-99.99,,2013-07-30 19:12:00,
2013-07-30 12:22:00,56.0,53.0,-100.00,North,11,4.0,-999.0,89,0.00,,,-99.99,,2013-07-30 19:22:00,
2013-07-30 12:30:00,56.0,53.0,-100.00,NNE,13,5.0,-999.0,89,0.00,,,-99.99,,2013-07-30 19:30:00,
2013-07-30 13:02:00,56.0,53.0,-100.00,NNE,13,5.0,-999.0,89,0.00,,,-99.99,,2013-07-30 20:02:00,
2013-07-30 13:12:00,56.0,53.0,-100.00,NNE,13,5.0,-999.0,89,0.00,,,-99.99,,2013-07-30 20:12:00,
2013-07-30 13:22:00,56.0,53.0,-100.00,NNE,13,5.0,-999.0,89,0.00,,,-99.99,,2013-07-30 20:22:00,
2013-07-30 13:30:00,56.0,53.0,-100.00,NNE,14,7.0,-999.0,89,0.00,,,-99.99,,2013-07-30 20:30:00,
2013-07-30 14:02:00,56.0,53.0,-100.00,NNE,14,7.0,-999.0,89,0.00,,,-99.99,,2013-07-30 21:02:00,
2013-07-30 14:12:00,56.0,53.0,-100.00,NNE,14,7.0,-999.0,89,0.00,,,-99.99,,2013-07-30 21:12:00,
2013-07-30 14:22:00,56.0,53.0,-100.00,NNE,14,7.0,-999.0,89,0.00,,,-99.99,,2013-07-30 21:22:00,
2013-07-30 14:30:00,56.0,53.0,-100.00,NNE,14,6.0,-999.0,88,0.00,,,-99.99,,2013-07-30 21:30:00,
2013-07-30 15:02:00,56.0,53.0,-100.00,NNE,14,6.0,-999.0,88,0.00,,,-99.99,,2013-07-30 22:02:00,
2013-07-30 15:12:00,56.0,53.0,-100.00,NNE,14,6.0,-999.0,88,0.00,,,-99.99,,2013-07-30 22:12:00,
2013-07-30 15:22:00,56.0,53.0,-100.00,NNE,14,6.0,-999.0,88,0.00,,,-99.99,,2013-07-30 22:22:00,
2013-07-30 15:30:00,57.0,53.0,-100.00,North,11,6.0,-999.0,88,0.00,,,-99.99,,2013-07-30 22:30:00,
2013-07-30 15:52:00,57.0,53.0,-100.00,North,11,6.0,-999.0,88,0.00,,,-99.99,,2013-07-30 22:52:00,
2013-07-30 16:02:00,57.0,53.0,-100.00,North,11,6.0,-999.0,88,0.00,,,-99.99,,2013-07-30 23:02:00,
2013-07-30 16:12:00,57.0,53.0,-100.00,North,11,6.0,-999.0,88,0.00,,,-99.99,,2013-07-30 23:12:00,
2013-07-30 16:22:00,57.0,53.0,-100.00,North,11,6.0,-999.0,88,0.00,,,-99.99,,2013-07-30 23:22:00,
2013-07-30 16:30:00,57.0,53.0,-100.00,NNE,16,6.0,-999.0,88,0.00,,,-99.99,,2013-07-30 23:30:00,
2013-07-30 16:53:00,57.0,53.0,-100.00,NNE,16,6.0,-999.0,88,0.00,,,-99.99,,2013-07-30 23:53:00,
2013-07-30 17:02:00,57.0,53.0,-100.00,NNE,16,6.0,-999.0,88,0.00,,,-99.99,,2013-07-31 00:02:00,
2013-07-30 17:12:00,57.0,53.0,-100.00,NNE,16,6.0,-999.0,88,0.00,,,-99.99,,2013-07-31 00:12:00,
2013-07-30 17:22:00,57.0,53.0,-100.00,NNE,16,6.0,-999.0,88,0.00,,,-99.99,,2013-07-31 00:22:00,
2013-07-30 17:30:00,57.0,53.0,-100.00,North,2,3.0,-999.0,87,0.00,,,-99.99,,2013-07-31 00:30:00,
2013-07-30 18:02:00,57.0,53.0,-100.00,North,2,3.0,-999.0,87,0.00,,,-99.99,,2013-07-31 01:02:00,
2013-07-30 18:12:00,57.0,53.0,-100.00,North,2,3.0,-999.0,87,0.00,,,-99.99,,2013-07-31 01:12:00,
2013-07-30 18:22:00,57.0,53.0,-100.00,North,2,3.0,-999.0,87,0.00,,,-99.99,,2013-07-31 01:22:00,
2013-07-30 18:30:00,57.0,53.0,-100.00,North,355,3.0,-999.0,86,0.00,,,-99.99,,2013-07-31 01:30:00,
2013-07-30 19:02:00,57.0,53.0,-100.00,North,355,3.0,-999.0,86,0.00,,,-99.99,,2013-07-31 02:02:00,
2013-07-30 19:12:00,57.0,53.0,-100.00,North,355,3.0,-999.0,86,0.00,,,-99.99,,2013-07-31 02:12:00,
2013-07-30 19:22:00,57.0,53.0,-100.00,North,355,3.0,-999.0,86,0.00,,,-99.99,,2013-07-31 02:22:00,
2013-07-30 20:30:00,56.0,53.0,-100.00,NNW,338,2.0,-999.0,88,0.00,,,-99.99,,2013-07-31 03:30:00,
2013-07-30 21:02:00,56.0,53.0,-100.00,NNW,338,2.0,-999.0,88,0.00,,,-99.99,,2013-07-31 04:02:00,
2013-07-30 21:12:00,56.0,53.0,-100.00,NNW,338,2.0,-999.0,88,0.00,,,-99.99,,2013-07-31 04:12:00,
2013-07-30 21:22:00,56.0,53.0,-100.00,NNW,338,2.0,-999.0,88,0.00,,,-99.99,,2013-07-31 04:22:00,
2013-07-30 21:30:00,55.0,52.0,-100.00,NNE,18,1.0,-999.0,89,0.00,,,-99.99,,2013-07-31 04:30:00,
2013-07-30 21:52:00,55.0,52.0,-100.00,NNE,18,1.0,-999.0,89,0.00,,,-99.99,,2013-07-31 04:52:00,
2013-07-30 22:02:00,55.0,52.0,-100.00,NNE,18,1.0,-999.0,89,0.00,,,-99.99,,2013-07-31 05:02:00,
2013-07-30 22:11:00,55.0,52.0,-100.00,NNE,18,1.0,-999.0,89,0.00,,,-99.99,,2013-07-31 05:11:00,
2013-07-30 22:22:00,55.0,52.0,-100.00,NNE,18,1.0,-999.0,89,0.00,,,-99.99,,2013-07-31 05:22:00,
2013-07-30 22:30:00,56.0,53.0,-100.00,NNE,13,1.0,-999.0,90,0.00,,,-99.99,,2013-07-31 05:30:00,
2013-07-30 22:52:00,56.0,53.0,-100.00,NNE,13,1.0,-999.0,90,0.00,,,-99.99,,2013-07-31 05:52:00,
2013-07-30 23:02:00,56.0,53.0,-100.00,NNE,13,1.0,-999.0,90,0.00,,,-99.99,,2013-07-31 06:02:00,
2013-07-30 23:12:00,56.0,53.0,-100.00,NNE,13,1.0,-999.0,90,0.00,,,-99.99,,2013-07-31 06:12:00,
2013-07-30 23:22:00,56.0,53.0,-100.00,NNE,13,1.0,-999.0,90,0.00,,,-99.99,,2013-07-31 06:22:00,
2013-07-30 23:30:00,56.0,53.0,-100.00,North,10,2.0,-999.0,92,0.00,,,-99.99,,2013-07-31 06:30:00,